When you browse on this site, cookies collect data to enhance your experience and personalize the content and advertising you see.
Visit our Privacy Policy to learn more. By continuing to use the site, you agree to this use of cookies and data.

Stündliche Wetter Onvervaht

Heute, 5 Juli, Sonntag

Zeit Temperatur Niederschläge Wind Luftdruck Luftfeuchtigkeit
00:00 +25°C° 0 mm 1 m/S 757 mmHg 98%
01:00 +23°C° 0 mm 0 m/S 756 mmHg 98%
02:00 +23°C° 0 mm 0 m/S 756 mmHg 98%
03:00 +23°C° 0 mm 0 m/S 756 mmHg 98%
04:00 +23°C° 0 mm 0 m/S 756 mmHg 98%
05:00 +23°C° 0 mm 0 m/S 756 mmHg 97%
06:00 +25°C° 0 mm 1 m/S 756 mmHg 94%
07:00 +26°C° 0 mm 1 m/S 757 mmHg 91%
08:00 +27°C° 0 mm 1 m/S 757 mmHg 89%
09:00 +29°C° 0 mm 1 m/S 757 mmHg 77%
10:00 +31°C° 0 mm 1 m/S 757 mmHg 65%
11:00 +35°C° 0 mm 2 m/S 757 mmHg 54%
12:00 +35°C° 0 mm 2 m/S 757 mmHg 52%
13:00 +35°C° 0 mm 1 m/S 756 mmHg 51%
14:00 +35°C° 0 mm 1 m/S 755 mmHg 49%
15:00 +34°C° 0.9 mm 2 m/S 755 mmHg 64%
16:00 +30°C° 0.9 mm 2 m/S 755 mmHg 78%
17:00 +28°C° 0.9 mm 2 m/S 755 mmHg 93%
18:00 +27°C° 0.3 mm 2 m/S 756 mmHg 94%
19:00 +26°C° 0.3 mm 2 m/S 756 mmHg 95%
20:00 +26°C° 0.3 mm 2 m/S 757 mmHg 96%
21:00 +26°C° 0 mm 1 m/S 757 mmHg 96%
22:00 +25°C° 0 mm 1 m/S 758 mmHg 96%
23:00 +25°C° 0 mm 1 m/S 758 mmHg 96%

Morgen, 6 Juli, Montag

Zeit Temperatur Niederschläge Wind Luftdruck Luftfeuchtigkeit
00:00 +25°C° 0 mm 1 m/S 757 mmHg 96%
01:00 +25°C° 0 mm 1 m/S 757 mmHg 97%
02:00 +23°C° 0 mm 0 m/S 756 mmHg 97%
03:00 +25°C° 0 mm 1 m/S 756 mmHg 97%
04:00 +24°C° 0 mm 1 m/S 756 mmHg 97%
05:00 +24°C° 0 mm 1 m/S 757 mmHg 97%
06:00 +25°C° 0 mm 1 m/S 757 mmHg 92%
07:00 +27°C° 0 mm 1 m/S 757 mmHg 87%
08:00 +28°C° 0 mm 1 m/S 758 mmHg 82%
09:00 +30°C° 0 mm 1 m/S 758 mmHg 73%
10:00 +31°C° 0 mm 2 m/S 758 mmHg 64%
11:00 +34°C° 0 mm 2 m/S 758 mmHg 54%
12:00 +34°C° 0.5 mm 2 m/S 757 mmHg 61%
13:00 +32°C° 0.5 mm 2 m/S 757 mmHg 67%
14:00 +32°C° 0.5 mm 2 m/S 756 mmHg 73%
15:00 +30°C° 0.9 mm 2 m/S 756 mmHg 81%
16:00 +29°C° 0.9 mm 2 m/S 756 mmHg 88%
17:00 +27°C° 0.9 mm 1 m/S 756 mmHg 95%
18:00 +27°C° 0.1 mm 1 m/S 757 mmHg 96%
19:00 +26°C° 0.1 mm 1 m/S 757 mmHg 97%
20:00 +25°C° 0.1 mm 1 m/S 758 mmHg 98%
21:00 +25°C° 0 mm 1 m/S 758 mmHg 99%
22:00 +25°C° 0 mm 1 m/S 758 mmHg 99%
23:00 +25°C° 0 mm 1 m/S 758 mmHg 99%

übermorgen, 7 Juli, Dienstag

Zeit Temperatur Niederschläge Wind Luftdruck Luftfeuchtigkeit
00:00 +25°C° 0 mm 1 m/S 758 mmHg 99%
01:00 +22°C° 0 mm 0 m/S 757 mmHg 99%
02:00 +22°C° 0 mm 0 m/S 757 mmHg 99%
03:00 +22°C° 0 mm 0 m/S 757 mmHg 99%
04:00 +22°C° 0 mm 0 m/S 757 mmHg 99%
05:00 +22°C° 0 mm 0 m/S 757 mmHg 99%
06:00 +25°C° 0 mm 1 m/S 757 mmHg 96%
07:00 +26°C° 0 mm 1 m/S 758 mmHg 94%
08:00 +27°C° 0 mm 1 m/S 758 mmHg 91%
09:00 +29°C° 0.3 mm 1 m/S 758 mmHg 82%
10:00 +31°C° 0.3 mm 1 m/S 758 mmHg 73%
11:00 +32°C° 0.3 mm 1 m/S 758 mmHg 64%
12:00 +31°C° 1.1 mm 1 m/S 757 mmHg 72%
13:00 +31°C° 1.1 mm 2 m/S 757 mmHg 80%
14:00 +30°C° 1.1 mm 2 m/S 756 mmHg 87%
15:00 +29°C° 0.8 mm 2 m/S 756 mmHg 88%
16:00 +29°C° 0.8 mm 1 m/S 756 mmHg 88%
17:00 +28°C° 0.8 mm 1 m/S 755 mmHg 89%
18:00 +27°C° 0.1 mm 1 m/S 756 mmHg 91%
19:00 +26°C° 0.1 mm 1 m/S 756 mmHg 94%
20:00 +25°C° 0.1 mm 1 m/S 757 mmHg 97%
21:00 +25°C° 0 mm 1 m/S 757 mmHg 97%
22:00 +25°C° 0 mm 1 m/S 757 mmHg 98%
23:00 +22°C° 0 mm 0 m/S 757 mmHg 98%

8 Juli, Mittwoch

Zeit Temperatur Niederschläge Wind Luftdruck Luftfeuchtigkeit
00:00 +22°C° 0 mm 0 m/S 757 mmHg 98%
01:00 +22°C° 0 mm 0 m/S 757 mmHg 98%
02:00 +22°C° 0 mm 0 m/S 756 mmHg 98%
03:00 +22°C° 0 mm 0 m/S 756 mmHg 98%
04:00 +22°C° 0 mm 0 m/S 756 mmHg 98%
05:00 +21°C° 0 mm 0 m/S 756 mmHg 98%
06:00 +23°C° 0 mm 0 m/S 757 mmHg 93%
07:00 +25°C° 0 mm 0 m/S 757 mmHg 88%
08:00 +26°C° 0 mm 0 m/S 758 mmHg 82%
09:00 +29°C° 0.7 mm 1 m/S 757 mmHg 82%
10:00 +30°C° 0.7 mm 1 m/S 757 mmHg 83%
11:00 +30°C° 0.7 mm 1 m/S 757 mmHg 83%
12:00 +30°C° 1.9 mm 1 m/S 756 mmHg 85%
13:00 +30°C° 1.9 mm 1 m/S 756 mmHg 87%
14:00 +29°C° 1.9 mm 1 m/S 755 mmHg 89%
15:00 +29°C° 1.4 mm 1 m/S 755 mmHg 90%
16:00 +28°C° 1.4 mm 1 m/S 755 mmHg 90%
17:00 +28°C° 1.4 mm 1 m/S 755 mmHg 91%
18:00 +27°C° 1.1 mm 1 m/S 756 mmHg 93%
19:00 +26°C° 1.1 mm 1 m/S 756 mmHg 95%
20:00 +25°C° 1.1 mm 1 m/S 757 mmHg 97%
21:00 +25°C° 0.5 mm 1 m/S 757 mmHg 97%
22:00 +25°C° 0.5 mm 1 m/S 757 mmHg 97%
23:00 +23°C° 0.5 mm 0 m/S 757 mmHg 97%

9 Juli, Donnerstag

Zeit Temperatur Niederschläge Wind Luftdruck Luftfeuchtigkeit
00:00 +23°C° 0.1 mm 0 m/S 757 mmHg 98%
01:00 +23°C° 0.1 mm 0 m/S 757 mmHg 98%
02:00 +25°C° 0.1 mm 1 m/S 756 mmHg 98%
03:00 +23°C° 0.3 mm 0 m/S 756 mmHg 98%
04:00 +23°C° 0.3 mm 0 m/S 756 mmHg 98%
05:00 +22°C° 0.3 mm 0 m/S 757 mmHg 98%
06:00 +23°C° 0.1 mm 0 m/S 757 mmHg 96%
07:00 +24°C° 0.1 mm 0 m/S 758 mmHg 95%
08:00 +24°C° 0.1 mm 0 m/S 758 mmHg 93%
09:00 +26°C° 1 mm 0 m/S 758 mmHg 89%
10:00 +27°C° 1 mm 0 m/S 758 mmHg 85%
11:00 +28°C° 1 mm 0 m/S 758 mmHg 81%
12:00 +30°C° 1.4 mm 1 m/S 757 mmHg 82%
13:00 +30°C° 1.4 mm 1 m/S 757 mmHg 84%
14:00 +30°C° 1.4 mm 1 m/S 756 mmHg 86%
15:00 +29°C° 1.3 mm 1 m/S 756 mmHg 89%
16:00 +28°C° 1.3 mm 1 m/S 756 mmHg 92%
17:00 +27°C° 1.3 mm 1 m/S 756 mmHg 95%
18:00 +26°C° 0.3 mm 1 m/S 756 mmHg 96%
19:00 +26°C° 0.3 mm 1 m/S 757 mmHg 97%
20:00 +25°C° 0.3 mm 1 m/S 757 mmHg 98%
21:00 +25°C° 0 mm 1 m/S 758 mmHg 98%
22:00 +25°C° 0 mm 1 m/S 758 mmHg 98%
23:00 +25°C° 0 mm 1 m/S 758 mmHg 98%

10 Juli, Freitag

Zeit Temperatur Niederschläge Wind Luftdruck Luftfeuchtigkeit
00:00 +24°C° 0 mm 1 m/S 757 mmHg 98%
01:00 +24°C° 0 mm 1 m/S 757 mmHg 98%
02:00 +24°C° 0 mm 1 m/S 757 mmHg 98%
03:00 +24°C° 0 mm 1 m/S 757 mmHg 98%
04:00 +24°C° 0 mm 1 m/S 757 mmHg 98%
05:00 +24°C° 0 mm 1 m/S 757 mmHg 98%
06:00 +25°C° 0 mm 1 m/S 758 mmHg 94%
07:00 +26°C° 0 mm 1 m/S 758 mmHg 90%
08:00 +27°C° 0 mm 1 m/S 759 mmHg 86%
09:00 +29°C° 0 mm 1 m/S 759 mmHg 75%
10:00 +31°C° 0 mm 2 m/S 759 mmHg 64%
11:00 +34°C° 0 mm 2 m/S 758 mmHg 54%
12:00 +35°C° 0.1 mm 2 m/S 758 mmHg 55%
13:00 +35°C° 0.1 mm 2 m/S 757 mmHg 56%
14:00 +35°C° 0.1 mm 2 m/S 757 mmHg 56%
15:00 +32°C° 0.4 mm 2 m/S 757 mmHg 65%
16:00 +31°C° 0.4 mm 2 m/S 756 mmHg 74%
17:00 +29°C° 0.4 mm 2 m/S 756 mmHg 82%
18:00 +28°C° 0.1 mm 1 m/S 757 mmHg 85%
19:00 +26°C° 0.1 mm 1 m/S 757 mmHg 88%
20:00 +25°C° 0.1 mm 1 m/S 758 mmHg 91%
21:00 +25°C° 0 mm 1 m/S 758 mmHg 93%
22:00 +25°C° 0 mm 1 m/S 758 mmHg 94%
23:00 +25°C° 0 mm 1 m/S 759 mmHg 95%
Mehr zeigen